Weather History for Kokomo, IN

Change the Weather History Date:

Thursday, September 26, 2013

  Actual Average (KGUS) Record (KGUS)
Temperature  
Mean Temperature 62 °F -  
Max Temperature 77 °F 69 °F 89 °F (1998)
Min Temperature 46 °F 49 °F 39 °F (2000)
Degree Days  
Heating Degree Days 4    
Growing Degree Days 12 (Base 50)    
Moisture  
Dew Point 48 °F    
Average Humidity 68    
Maximum Humidity 94    
Minimum Humidity 39    
Precipitation  
Precipitation 0.00 in - - ()
Sea Level Pressure  
Sea Level Pressure 30.03 in    
Wind  
Wind Speed 5 mph (ENE)    
Max Wind Speed 12 mph    
Max Gust Speed -    
Visibility 8 miles    
Events      
Averages and records for this station are not official NWS values.
T = Trace of Precipitation, MM = Missing Value Source: NWS Daily Summary

Daily Weather History Graph

Daily Weather History Graph

Search for Another Location

Airport:

Trip Planner

Search our weather history database for the weather conditions in past years. The results will help you decide how hot, cold, wet, or windy it might be!

Date:

Astronomy

Sep. 26, 2013 Rise Set
Actual Time 6:35 AM CDT 6:34 PM CDT
Civil Twilight 6:08 AM CDT 7:01 PM CDT
Nautical Twilight 5:36 AM CDT 7:33 PM CDT
Astronomical Twilight 5:04 AM CDT 8:05 PM CDT
Moon 11:30 PM CDT (9/26) 1:28 PM CDT (9/26)
Length of Visible Light 12h 52m
Length of Day
11h 58m
Waning Gibbous, 54% of the Moon is Illuminated
Sep 26
Waning Gibbous
Sep 26
Last Quarter
Oct 4
New
Oct 11
First Quarter
Oct 18
Full

Hourly Weather History & Observations

Time (CDT) Temp. Windchill Dew Point Humidity Pressure Visibility Wind Dir Wind Speed Gust Speed Precip Events Conditions
12:15 AM 51.8 °F - 46.4 °F 82% 29.96 in 10.0 mi East 3.5 mph - N/A   Clear
12:35 AM 53.6 °F - 46.4 °F 77% 29.96 in 10.0 mi Calm Calm - N/A   Clear
12:55 AM 51.8 °F - 44.6 °F 76% 29.96 in 10.0 mi Calm Calm - N/A   Clear
1:15 AM 48.2 °F - 44.6 °F 87% 29.97 in 9.0 mi East 3.5 mph - N/A   Clear
1:35 AM 48.2 °F - 44.6 °F 87% 29.97 in 10.0 mi East 4.6 mph - N/A   Clear
1:55 AM 48.2 °F - 44.6 °F 87% 29.97 in 10.0 mi ENE 5.8 mph - N/A   Clear
2:15 AM 50.0 °F - 46.4 °F 87% 29.97 in 9.0 mi ENE 4.6 mph - N/A   Clear
2:35 AM 48.2 °F - 44.6 °F 87% 29.97 in 7.0 mi ENE 5.8 mph - N/A   Clear
2:55 AM 48.2 °F - 44.6 °F 87% 29.97 in 6.0 mi ENE 6.9 mph - N/A   Clear
3:15 AM 48.2 °F - 44.6 °F 87% 29.97 in 6.0 mi ENE 5.8 mph - N/A   Clear
3:35 AM 48.2 °F - 44.6 °F 87% 29.97 in 5.0 mi ENE 4.6 mph - N/A   Clear
3:55 AM 48.2 °F - 44.6 °F 87% 29.98 in 5.0 mi ENE 4.6 mph - N/A   Clear
4:15 AM 48.2 °F - 44.6 °F 87% 29.99 in 3.0 mi ENE 5.8 mph - N/A   Clear
4:35 AM 48.2 °F - 44.6 °F 87% 29.99 in 3.0 mi ENE 4.6 mph - N/A   Clear
4:55 AM 48.2 °F - 44.6 °F 87% 30.00 in 3.0 mi ENE 3.5 mph - N/A   Clear
5:15 AM 48.2 °F - 46.4 °F 93% 30.01 in 3.0 mi Calm Calm - N/A   Clear
5:35 AM 48.2 °F - 42.8 °F 82% 30.01 in 1.5 mi ENE 3.5 mph - N/A   Clear
5:55 AM 46.4 °F - 42.8 °F 87% 30.02 in 0.8 mi Calm Calm - N/A   Unknown
6:15 AM 46.4 °F - 42.8 °F 87% 30.02 in 1.0 mi Calm Calm - N/A   Clear
6:35 AM 46.4 °F 45.2 °F 44.6 °F 93% 30.03 in 0.5 mi North 3.5 mph - N/A   Unknown
6:55 AM 46.4 °F - 42.8 °F 87% 30.03 in 0.2 mi Calm Calm - N/A   Overcast
7:15 AM 48.2 °F - 44.6 °F 87% 30.03 in 0.2 mi ENE 3.5 mph - N/A   Overcast
7:35 AM 48.2 °F - 46.4 °F 93% 30.04 in 0.2 mi ENE 3.5 mph - N/A   Overcast
7:55 AM 51.8 °F - 48.2 °F 88% 30.04 in 0.2 mi ENE 4.6 mph - N/A   Overcast
8:15 AM 51.8 °F - 48.2 °F 88% 30.05 in 0.2 mi ENE 5.8 mph - N/A   Overcast
8:35 AM 53.6 °F - 51.8 °F 94% 30.06 in 1.8 mi ENE 5.8 mph - N/A   Mostly Cloudy
8:55 AM 55.4 °F - 53.6 °F 94% 30.06 in 4.0 mi ENE 5.8 mph - N/A   Clear
9:15 AM 57.2 °F - 53.6 °F 88% 30.07 in 7.0 mi East 6.9 mph - N/A   Clear
9:35 AM 59.0 °F - 53.6 °F 82% 30.07 in 9.0 mi ENE 5.8 mph - N/A   Clear
9:55 AM - - - N/A% 30.06 in 10.0 mi ENE 5.8 mph - N/A   Clear
10:15 AM - - - N/A% 30.06 in 10.0 mi ENE 6.9 mph - N/A   Clear
10:35 AM - - - N/A% 30.06 in 10.0 mi ENE 6.9 mph - N/A   Clear
10:55 AM - - - N/A% 30.06 in 10.0 mi East 6.9 mph - N/A   Clear
11:15 AM 69.8 °F - 51.8 °F 53% 30.07 in 10.0 mi ENE 8.1 mph - N/A   Clear
11:35 AM 71.6 °F - 51.8 °F 50% 30.06 in 10.0 mi NE 8.1 mph - N/A   Clear
11:55 AM 71.6 °F - 53.6 °F 53% 30.06 in 10.0 mi East 8.1 mph - N/A   Clear
12:15 PM 71.6 °F - 53.6 °F 53% 30.05 in 10.0 mi East 10.4 mph - N/A   Clear
12:35 PM 73.4 °F - 53.6 °F 50% 30.04 in 10.0 mi ESE 11.5 mph - N/A   Clear
12:55 PM 73.4 °F - 51.8 °F 47% 30.04 in 10.0 mi ENE 6.9 mph - N/A   Clear
1:15 PM 73.4 °F - 51.8 °F 47% 30.03 in 10.0 mi Calm Calm - N/A   Clear
1:35 PM 75.2 °F - 53.6 °F 47% 30.03 in 10.0 mi East 6.9 mph - N/A   Clear
1:55 PM 75.2 °F - 51.8 °F 44% 30.03 in 10.0 mi ESE 8.1 mph - N/A   Clear
2:15 PM 75.2 °F - 51.8 °F 44% 30.03 in 10.0 mi SE 9.2 mph - N/A   Clear
2:35 PM 77.0 °F - 51.8 °F 41% 30.03 in 10.0 mi East 9.2 mph - N/A   Clear
2:55 PM 77.0 °F - 51.8 °F 41% 30.03 in 10.0 mi East 6.9 mph - N/A   Clear
3:15 PM 77.0 °F - 51.8 °F 41% 30.03 in 10.0 mi South 5.8 mph - N/A   Clear
3:35 PM 77.0 °F - 51.8 °F 41% 30.03 in 10.0 mi East 4.6 mph - N/A   Clear
3:55 PM 77.0 °F - 51.8 °F 41% 30.02 in 10.0 mi ENE 5.8 mph - N/A   Clear
4:15 PM 77.0 °F - 50.0 °F 39% 30.02 in 10.0 mi East 5.8 mph - N/A   Clear
4:35 PM 77.0 °F - 50.0 °F 39% 30.03 in 10.0 mi East 5.8 mph - N/A   Clear
4:55 PM 77.0 °F - 50.0 °F 39% 30.03 in 10.0 mi East 5.8 mph - N/A   Clear
5:15 PM 75.2 °F - 51.8 °F 44% 30.03 in 10.0 mi East 8.1 mph - N/A   Clear
5:35 PM 75.2 °F - 51.8 °F 44% 30.03 in 10.0 mi East 6.9 mph - N/A   Clear
5:55 PM 73.4 °F - 50.0 °F 44% 30.03 in 10.0 mi East 6.9 mph - N/A   Clear
6:15 PM 71.6 °F - 48.2 °F 43% 30.04 in 10.0 mi East 5.8 mph - N/A   Clear
6:35 PM 69.8 °F - 48.2 °F 46% 30.05 in 10.0 mi East 3.5 mph - N/A   Clear
6:55 PM 66.2 °F - 48.2 °F 52% 30.05 in 10.0 mi East 3.5 mph - N/A   Clear
7:15 PM 64.4 °F - 48.2 °F 56% 30.05 in 10.0 mi ENE 3.5 mph - N/A   Clear
7:35 PM 62.6 °F - 50.0 °F 63% 30.06 in 10.0 mi Calm Calm - N/A   Clear
7:55 PM 59.0 °F - 50.0 °F 72% 30.06 in 10.0 mi Calm Calm - N/A   Clear
8:15 PM 59.0 °F - 48.2 °F 67% 30.07 in 10.0 mi ENE 3.5 mph - N/A   Clear
8:35 PM 57.2 °F - 48.2 °F 72% 30.07 in 10.0 mi ENE 4.6 mph - N/A   Clear
8:55 PM 57.2 °F - 48.2 °F 72% 30.07 in 10.0 mi ENE 5.8 mph - N/A   Clear
9:15 PM 55.4 °F - 46.4 °F 72% 30.07 in 10.0 mi ENE 4.6 mph - N/A   Clear
9:35 PM 57.2 °F - 48.2 °F 72% 30.08 in 10.0 mi ENE 3.5 mph - N/A   Clear
9:55 PM 55.4 °F - 46.4 °F 72% 30.08 in 10.0 mi ENE 6.9 mph - N/A   Clear
10:15 PM 55.4 °F - 46.4 °F 72% 30.08 in 10.0 mi ENE 8.1 mph - N/A   Clear
10:35 PM 55.4 °F - 46.4 °F 72% 30.09 in 10.0 mi East 6.9 mph - N/A   Clear
10:55 PM 55.4 °F - 46.4 °F 72% 30.09 in 10.0 mi East 8.1 mph - N/A   Clear
11:15 PM 55.4 °F - 46.4 °F 72% 30.09 in 10.0 mi East 6.9 mph - N/A   Clear
11:35 PM 55.4 °F - 46.4 °F 72% 30.09 in 10.0 mi East 6.9 mph - N/A   Clear
11:55 PM 55.4 °F - 46.4 °F 72% 30.10 in 10.0 mi East 5.8 mph - N/A   Clear